Regional Weather Roundup
Issued by NWS

Home | Current Version | Previous Version | Graphics & Text | Print | Product List | Glossary On
Versions: 1 2 3 4 5 6 7 8 9 10 11 12 13 14 15 16 17 18 19 20 21 22 23 24 25 26 27 28 29 30 31 32 33 34 35 36 37 38 39 40 41 42 43 44 45 46 47
000
ASUS45 KCYS 241410
RWRWY

WYOMING REGIONAL WEATHER ROUNDUP
NATIONAL WEATHER SERVICE CHEYENNE WY
700 AM MST WED DEC 24 2014

NOTE:  "FAIR" INDICATES FEW OR NO CLOUDS BELOW 12,000 FEET
WITH NO SIGNIFICANT WEATHER AND/OR OBSTRUCTIONS TO VISIBILITY.

WYZ001-241500-
YELLOWSTONE NATIONAL PARK

CITY           SKY/WX    TMP DP  RH WIND       PRES   REMARKS
LK YELLOWSTONE   N/A     16  11  80 CALM      29.96F
W YELLOWSTONE  NOT AVBL

$$
WYZ002>013-054>058-071-098>099-241500-
NORTHERN WYOMING

CITY           SKY/WX    TMP DP  RH WIND       PRES   REMARKS
JACKSON        CLOUDY    12  12 100 N8        30.01F WCI   1
CODY           FAIR      30  19  64 W10G18    29.78F WCI  21
GREYBULL       FAIR      15  12  88 S5        29.87F WCI   8
WORLAND        FAIR       9   4  80 CALM      29.87F
SHERIDAN       FAIR      24  18  77 S5        29.69F WCI  18
BUFFALO        FAIR      33  19  56 SE6       29.70F WCI  28
GILLETTE       CLOUDY    33  18  53 SW16      29.71F WCI  23
HULETT           N/A    N/A N/A N/A MISG        N/A
NEWCASTLE      FAIR      14  10  85 CALM      29.82F

$$
WYZ014>020-022>026-101>103-241500-
CENTRAL WYOMING

CITY           SKY/WX    TMP DP  RH WIND       PRES   REMARKS
BIG PINEY      FAIR       3  -2  79 CALM      30.04S
PINEDALE       CLOUDY    14  10  85 W3        30.03F
DUBOIS         NOT AVBL
LANDER         FAIR      13   6  74 NW7       29.86F WCI   3
RIVERTON       FAIR      14   7  73 NW6       29.88F WCI   5
CASPER         MOCLDY    25  14  63 SW26G35   29.86F WCI   9
DOUGLAS        FAIR      20  13  74 W5        29.85F WCI  13

$$
WYZ021-027>030-104>119-241500-
SOUTHERN WYOMING

CITY           SKY/WX    TMP DP  RH WIND       PRES   REMARKS
EVANSTON       CLOUDY    19  11  70 SW12      30.06F WCI   7
FORT BRIDGER   CLOUDY    27  17  65 W14       30.08S WCI  16
ROCK SPRINGS   FAIR      21  10  62 W25       30.04F WCI   4
DIXON          FAIR       8   3  78 E5        30.15F WCI   0
RAWLINS        FAIR      23  10  57 VRB5      30.00F WCI  17
SARATOGA       FAIR      12   5  73 S12       30.04F WCI  -2
LARAMIE        FAIR      12   5  73 SW13      29.92S WCI  -3
CHEYENNE       FAIR      27  11  51 W18G25    29.84F WCI  14
TORRINGTON     FAIR      12   8  84 SE6       29.86F WCI   3
PINE BLUFFS    FAIR      18  10  73 SW6       29.88F WCI   9

$$


USA.gov is the U.S. government's official web portal to all federal, state and local government web resources and services.